"Pseudo-MPEC" for TF26H56

Created 2026 Aug 15 15:35:31 UT using Find_Orb

Click here for an explanation of pseudo-MPECs

 
 Astrometry: 
     TF26H56* C2026 08 15.40755200 19 07.300+01 15 08.95   ~8FA5 18.02GVNEOCPU74
     TF26H56  C2026 08 15.40855400 19 07.316+01 14 58.66   ~8FA5 18.02GVNEOCPU74

Station data:
(U74) JPL SynTrack Robotic Telescope 2, Auberry  (N37.070341 W119.412800)
   US/California.  Observers N. Saini, C. Zhai, R. Trahan, M. Zhan, M. Shao.
   0.36-m f/2.2 Schmidt.

Orbital elements:  TF26H56
   Perihelion 2026 Oct 10.956323 +/- 60.1 TT = 22:57:06.3 (JD 2461324.456323)
Epoch 2026 Aug 15.0 TT = JDT 2461267.5   Earth MOID: 0.0700      AutoNEOCP
M 294.896054741 +/- 60              (J2000 ecliptic)
n   1.143050345 +/- 0.671           Peri.  333.874782 +/- 90
a   0.905925483 +/- 0.354           Node   147.814409 +/- 17
e   0.80955841 +/- 0.281            Incl.   62.755924 +/- 37
P   0.862/314.941d         H 20.43  G  0.15   U 12.5  SR
q 0.172525882 +/- 0.441    Q 1.639325084 +/- 17.3
From 2 observations 2026 Aug. 15 (86.6 sec); mean residual 0".00
Residuals in arcseconds: 
260815 U74  .00   .00     260815 U74  .00   .00     

Ephemerides (geocentric):
Date (UTC) HH   RA             Dec           delta  r     elong  mag " sig PA
---- --------  ------------   ------------  ------ ------ -----  --- --------
2026 08 15 16  00 19 15.316   +00 30 03.19  .16065 1.1370 137.8 18.2  24d  88
2026 08 15 17  00 19 16.733   +00 22 28.32  .15992 1.1365 137.9 18.2  25d  90
2026 08 15 18  00 19 18.156   +00 14 49.20  .15918 1.1361 138.0 18.2  25d  91
2026 08 15 19  00 19 19.583   +00 07 05.79  .15845 1.1356 138.1 18.2  25d  91
2026 08 15 20  00 19 21.016   -00 00 41.97  .15772 1.1351 138.2 18.2  25d  91
2026 08 15 21  00 19 22.454   -00 08 34.14  .15698 1.1347 138.3 18.2  25d  91
2026 08 15 22  00 19 23.898   -00 16 30.77  .15625 1.1342 138.3 18.2  25d  90
2026 08 15 23  00 19 25.347   -00 24 31.93  .15552 1.1338 138.4 18.1  25d  90
2026 08 16 00  00 19 26.802   -00 32 37.66  .15480 1.1333 138.5 18.1  26d  87
2026 08 16 01  00 19 28.263   -00 40 48.02  .15407 1.1328 138.6 18.1  31d  87
2026 08 16 02  00 19 29.730   -00 49 03.09  .15334 1.1324 138.7 18.1  31d  89
2026 08 16 03  00 19 31.203   -00 57 22.90  .15262 1.1319 138.7 18.1  31d  89
2026 08 16 04  00 19 32.683   -01 05 47.54  .15189 1.1314 138.8 18.1  31d  89
2026 08 16 05  00 19 34.168   -01 14 17.05  .15117 1.1310 138.9 18.1  31d  89
2026 08 16 06  00 19 35.660   -01 22 51.51  .15044 1.1305 139.0 18.1  31d  89
2026 08 16 07  00 19 37.159   -01 31 30.98  .14972 1.1300 139.1 18.0  31d  89
2026 08 16 08  00 19 38.664   -01 40 15.51  .14900 1.1296 139.2 18.0  32d  88
2026 08 16 09  00 19 40.177   -01 49 05.19  .14828 1.1291 139.2 18.0  34d  87
2026 08 16 10  00 19 41.696   -01 58 00.07  .14756 1.1286 139.3 18.0  35d  88
2026 08 16 11  00 19 43.222   -02 07 00.22  .14684 1.1282 139.4 18.0  35d  88
2026 08 16 12  00 19 44.756   -02 16 05.72  .14613 1.1277 139.5 18.0  36d  88
2026 08 16 13  00 19 46.297   -02 25 16.63  .14541 1.1272 139.6 18.0  36d  87
2026 08 16 14  00 19 47.845   -02 34 33.02  .14470 1.1268 139.7 17.9  39d  84
2026 08 16 15  00 19 49.402   -02 43 54.98  .14398 1.1263 139.7 17.9  43d  84
2026 08 16 16  00 19 50.966   -02 53 22.56  .14327 1.1258 139.8 17.9  43d  86
2026 08 16 17  00 19 52.538   -03 02 55.85  .14256 1.1254 139.9 17.9  43d  87
2026 08 16 18  00 19 54.118   -03 12 34.91  .14185 1.1249 140.0 17.9  43d  87
2026 08 16 19  00 19 55.706   -03 22 19.84  .14114 1.1244 140.1 17.9  44d  88
2026 08 16 20  00 19 57.303   -03 32 10.70  .14043 1.1240 140.1 17.9  44d  88
2026 08 16 21  00 19 58.909   -03 42 07.58  .13973 1.1235 140.2 17.9  44d  88
2026 08 16 22  00 20 00.523   -03 52 10.55  .13902 1.1230 140.3 17.8  44d  88
2026 08 16 23  00 20 02.147   -04 02 19.70  .13832 1.1226 140.4 17.8  44d  87
2026 08 17 00  00 20 03.779   -04 12 35.11  .13762 1.1221 140.5 17.8  47d  85
2026 08 17 01  00 20 05.421   -04 22 56.87  .13692 1.1216 140.6 17.8  49d  85
2026 08 17 02  00 20 07.072   -04 33 25.05  .13622 1.1211 140.6 17.8  49d  86
2026 08 17 03  00 20 08.734   -04 43 59.75  .13552 1.1207 140.7 17.8  50d  86
2026 08 17 04  00 20 10.405   -04 54 41.06  .13482 1.1202 140.8 17.8  50d  87
2026 08 17 05  00 20 12.086   -05 05 29.06  .13412 1.1197 140.9 17.7  50d  87
2026 08 17 06  00 20 13.777   -05 16 23.84  .13343 1.1193 141.0 17.7  50d  87
2026 08 17 07  00 20 15.479   -05 27 25.50  .13274 1.1188 141.0 17.7  50d  87
2026 08 17 08  00 20 17.191   -05 38 34.13  .13204 1.1183 141.1 17.7  51d  86
2026 08 17 09  00 20 18.915   -05 49 49.82  .13135 1.1178 141.2 17.7  52d  86
2026 08 17 10  00 20 20.650   -06 01 12.67  .13067 1.1174 141.3 17.7  52d  87
2026 08 17 11  00 20 22.396   -06 12 42.79  .12998 1.1169 141.3 17.7  52d  87
2026 08 17 12  00 20 24.153   -06 24 20.25  .12929 1.1164 141.4 17.7  52d  87
2026 08 17 13  00 20 25.923   -06 36 05.18  .12861 1.1159 141.5 17.6  53d  88
2026 08 17 14  00 20 27.704   -06 47 57.66  .12793 1.1155 141.6 17.6  53d  88
2026 08 17 15  00 20 29.498   -06 59 57.80  .12725 1.1150 141.7 17.6  53d  88